• In Uzbekistan
  • List of Countries
  • For 7 days
  • Water Temperature
  • Satellite Maps
  • Weather Map
  • Weather Widgets
  • user-avatar
    Login

    Hourly Weather Ixtacomitan

    Today, 24 October, Wednesday

    Time Temperature Precipitation Wind Pressure Humidity
    00:00 +24°C° 0.1 mm 1 mps 740 mmHg 94%
    01:00 +24°C° 0 mm 1 mps 740 mmHg 94%
    02:00 +24°C° 0 mm 1 mps 740 mmHg 94%
    03:00 +24°C° 0 mm 1 mps 739 mmHg 94%
    04:00 +24°C° 0 mm 1 mps 739 mmHg 93%
    05:00 +23°C° 0 mm 1 mps 739 mmHg 93%
    06:00 +23°C° 0 mm 1 mps 739 mmHg 92%
    07:00 +25°C° 0 mm 1 mps 740 mmHg 87%
    08:00 +27°C° 0 mm 1 mps 740 mmHg 81%
    09:00 +29°C° 0 mm 1 mps 740 mmHg 76%
    10:00 +30°C° 0 mm 1 mps 740 mmHg 72%
    11:00 +31°C° 0 mm 1 mps 740 mmHg 69%
    12:00 +32°C° 0 mm 2 mps 739 mmHg 65%
    13:00 +32°C° 0 mm 2 mps 739 mmHg 66%
    14:00 +32°C° 0 mm 2 mps 738 mmHg 67%
    15:00 +31°C° 0 mm 2 mps 737 mmHg 68%
    16:00 +30°C° 0.1 mm 1 mps 737 mmHg 75%
    17:00 +28°C° 0.1 mm 1 mps 737 mmHg 81%
    18:00 +26°C° 0.1 mm 1 mps 737 mmHg 87%
    19:00 +26°C° 0 mm 1 mps 738 mmHg 88%
    20:00 +25°C° 0 mm 1 mps 738 mmHg 88%
    21:00 +25°C° 0 mm 1 mps 739 mmHg 89%
    22:00 +24°C° 0 mm 1 mps 739 mmHg 88%
    23:00 +24°C° 0 mm 1 mps 739 mmHg 88%

    Tomorrow, 25 October, Thursday

    Time Temperature Precipitation Wind Pressure Humidity
    00:00 +24°C° 0 mm 1 mps 739 mmHg 87%
    01:00 +24°C° 0 mm 1 mps 739 mmHg 87%
    02:00 +23°C° 0 mm 1 mps 738 mmHg 87%
    03:00 +23°C° 0 mm 1 mps 738 mmHg 86%
    04:00 +23°C° 0 mm 1 mps 738 mmHg 86%
    05:00 +23°C° 0 mm 1 mps 738 mmHg 85%
    06:00 +22°C° 0 mm 1 mps 738 mmHg 85%
    07:00 +25°C° 0 mm 1 mps 738 mmHg 79%
    08:00 +27°C° 0 mm 1 mps 739 mmHg 74%
    09:00 +29°C° 0 mm 1 mps 739 mmHg 69%
    10:00 +30°C° 0 mm 1 mps 739 mmHg 67%
    11:00 +31°C° 0 mm 1 mps 739 mmHg 64%
    12:00 +32°C° 0 mm 1 mps 738 mmHg 61%
    13:00 +32°C° 0.2 mm 1 mps 737 mmHg 64%
    14:00 +32°C° 0.2 mm 1 mps 737 mmHg 67%
    15:00 +31°C° 0.2 mm 2 mps 736 mmHg 69%
    16:00 +30°C° 0.2 mm 1 mps 736 mmHg 75%
    17:00 +28°C° 0.2 mm 1 mps 736 mmHg 81%
    18:00 +26°C° 0.2 mm 1 mps 737 mmHg 87%
    19:00 +26°C° 0.1 mm 1 mps 737 mmHg 89%
    20:00 +25°C° 0.1 mm 1 mps 738 mmHg 91%
    21:00 +25°C° 0.1 mm 1 mps 739 mmHg 92%
    22:00 +25°C° 0 mm 1 mps 739 mmHg 92%
    23:00 +24°C° 0 mm 1 mps 739 mmHg 92%

    Day after tomorrow, 26 October, Friday

    Time Temperature Precipitation Wind Pressure Humidity
    00:00 +24°C° 0 mm 1 mps 739 mmHg 92%
    01:00 +24°C° 0 mm 1 mps 738 mmHg 92%
    02:00 +24°C° 0 mm 1 mps 738 mmHg 93%
    03:00 +24°C° 0 mm 1 mps 737 mmHg 93%
    04:00 +24°C° 0 mm 1 mps 737 mmHg 93%
    05:00 +23°C° 0 mm 1 mps 737 mmHg 92%
    06:00 +23°C° 0 mm 1 mps 738 mmHg 92%
    07:00 +25°C° 0 mm 1 mps 738 mmHg 87%
    08:00 +25°C° 0 mm 0 mps 739 mmHg 82%
    09:00 +27°C° 0 mm 0 mps 739 mmHg 76%
    10:00 +30°C° 0 mm 1 mps 739 mmHg 73%
    11:00 +30°C° 0 mm 1 mps 738 mmHg 69%
    12:00 +31°C° 0 mm 1 mps 738 mmHg 65%
    13:00 +31°C° 0.1 mm 2 mps 737 mmHg 67%
    14:00 +31°C° 0.1 mm 2 mps 736 mmHg 68%
    15:00 +31°C° 0.1 mm 2 mps 736 mmHg 70%
    16:00 +30°C° 0.2 mm 1 mps 736 mmHg 76%
    17:00 +28°C° 0.2 mm 1 mps 736 mmHg 82%
    18:00 +27°C° 0.2 mm 1 mps 736 mmHg 88%
    19:00 +26°C° 0 mm 1 mps 737 mmHg 90%
    20:00 +25°C° 0 mm 1 mps 738 mmHg 91%
    21:00 +25°C° 0 mm 1 mps 738 mmHg 93%
    22:00 +25°C° 0 mm 1 mps 738 mmHg 93%
    23:00 +25°C° 0 mm 1 mps 738 mmHg 93%

    27 October, Saturday

    Time Temperature Precipitation Wind Pressure Humidity
    00:00 +22°C° 0 mm 0 mps 738 mmHg 92%
    01:00 +22°C° 0 mm 0 mps 738 mmHg 93%
    02:00 +22°C° 0 mm 0 mps 737 mmHg 93%
    03:00 +22°C° 0 mm 0 mps 737 mmHg 93%
    04:00 +22°C° 0 mm 0 mps 737 mmHg 92%
    05:00 +22°C° 0 mm 0 mps 738 mmHg 92%
    06:00 +22°C° 0 mm 0 mps 738 mmHg 92%
    07:00 +25°C° 0 mm 1 mps 739 mmHg 87%
    08:00 +27°C° 0 mm 1 mps 739 mmHg 83%
    09:00 +28°C° 0 mm 1 mps 740 mmHg 78%
    10:00 +29°C° 0.1 mm 1 mps 739 mmHg 75%
    11:00 +30°C° 0.1 mm 2 mps 739 mmHg 71%
    12:00 +31°C° 0.1 mm 2 mps 739 mmHg 68%
    13:00 +31°C° 0.5 mm 2 mps 738 mmHg 71%
    14:00 +30°C° 0.5 mm 2 mps 738 mmHg 75%
    15:00 +29°C° 0.5 mm 2 mps 737 mmHg 79%
    16:00 +28°C° 0.7 mm 2 mps 738 mmHg 84%
    17:00 +27°C° 0.7 mm 2 mps 738 mmHg 89%
    18:00 +25°C° 0.7 mm 1 mps 739 mmHg 94%
    19:00 +25°C° 0.2 mm 1 mps 739 mmHg 94%
    20:00 +25°C° 0.2 mm 1 mps 740 mmHg 94%
    21:00 +24°C° 0.2 mm 1 mps 740 mmHg 94%
    22:00 +24°C° 0 mm 1 mps 740 mmHg 94%
    23:00 +24°C° 0 mm 1 mps 740 mmHg 94%

    28 October, Sunday

    Time Temperature Precipitation Wind Pressure Humidity
    00:00 +24°C° 0 mm 1 mps 740 mmHg 94%
    01:00 +23°C° 0.1 mm 1 mps 740 mmHg 94%
    02:00 +23°C° 0.1 mm 1 mps 739 mmHg 94%
    03:00 +23°C° 0.1 mm 1 mps 739 mmHg 94%
    04:00 +23°C° 0 mm 1 mps 740 mmHg 94%
    05:00 +23°C° 0 mm 1 mps 740 mmHg 94%
    06:00 +23°C° 0 mm 1 mps 740 mmHg 94%
    07:00 +24°C° 0 mm 1 mps 741 mmHg 89%
    08:00 +26°C° 0 mm 1 mps 741 mmHg 85%
    09:00 +27°C° 0 mm 1 mps 742 mmHg 80%
    10:00 +28°C° 0.1 mm 1 mps 741 mmHg 76%
    11:00 +29°C° 0.1 mm 2 mps 741 mmHg 73%
    12:00 +30°C° 0.1 mm 2 mps 740 mmHg 69%
    13:00 +30°C° 0.5 mm 2 mps 740 mmHg 72%
    14:00 +29°C° 0.5 mm 2 mps 739 mmHg 76%
    15:00 +29°C° 0.5 mm 2 mps 739 mmHg 79%
    16:00 +28°C° 0.6 mm 2 mps 739 mmHg 84%
    17:00 +26°C° 0.6 mm 2 mps 740 mmHg 89%
    18:00 +25°C° 0.6 mm 1 mps 740 mmHg 93%
    19:00 +25°C° 0.3 mm 1 mps 741 mmHg 94%
    20:00 +24°C° 0.3 mm 1 mps 741 mmHg 94%
    21:00 +24°C° 0.3 mm 1 mps 742 mmHg 94%
    22:00 +24°C° 0.3 mm 1 mps 742 mmHg 94%
    23:00 +24°C° 0.3 mm 1 mps 741 mmHg 94%

    29 October, Monday

    Time Temperature Precipitation Wind Pressure Humidity
    00:00 +23°C° 0.3 mm 1 mps 741 mmHg 94%
    01:00 +23°C° 0 mm 1 mps 741 mmHg 94%
    02:00 +23°C° 0 mm 1 mps 741 mmHg 94%
    03:00 +23°C° 0 mm 1 mps 741 mmHg 94%
    04:00 +23°C° 0 mm 1 mps 741 mmHg 94%
    05:00 +23°C° 0 mm 1 mps 741 mmHg 94%
    06:00 +23°C° 0 mm 1 mps 742 mmHg 94%
    07:00 +24°C° 0.2 mm 1 mps 742 mmHg 91%
    08:00 +25°C° 0.2 mm 1 mps 743 mmHg 88%
    09:00 +26°C° 0.2 mm 1 mps 743 mmHg 85%
    10:00 +27°C° 0.6 mm 2 mps 743 mmHg 83%
    11:00 +27°C° 0.6 mm 2 mps 743 mmHg 80%
    12:00 +28°C° 0.6 mm 3 mps 742 mmHg 77%
    13:00 +27°C° 1.2 mm 3 mps 742 mmHg 81%
    14:00 +26°C° 1.2 mm 3 mps 741 mmHg 84%
    15:00 +25°C° 1.2 mm 3 mps 741 mmHg 87%
    16:00 +25°C° 0.7 mm 3 mps 741 mmHg 89%
    17:00 +24°C° 0.7 mm 2 mps 742 mmHg 90%
    18:00 +23°C° 0.7 mm 2 mps 742 mmHg 92%
    19:00 +23°C° 0.4 mm 2 mps 743 mmHg 92%
    20:00 +23°C° 0.4 mm 2 mps 743 mmHg 92%
    21:00 +23°C° 0.4 mm 2 mps 744 mmHg 92%
    22:00 +22°C° 0.1 mm 1 mps 744 mmHg 92%
    23:00 +22°C° 0.1 mm 1 mps 744 mmHg 92%
    Show more